Satellite: INMARSAT 3-F1
Catalog number: 23839
Epoch time:      102362.74878715
Element set:     841 
Inclination:        0.0618 deg
RA of node:        18.2214 deg
Eccentricity:    0.0005592
Arg of perigee:   221.8028 deg
Mean anomaly:     190.5550 deg
Mean motion:    1.00274532 rev/day
Decay rate:    2.4999E-007 rev/day^2
Epoch rev:            2469
Checksum:              299

Satellite: ASTRA 1F
Catalog number: 23842
Epoch time:      102354.00000000
Element set:     554 
Inclination:        0.0122 deg
RA of node:       319.8851 deg
Eccentricity:    0.0002995
Arg of perigee:    65.1991 deg
Mean anomaly:      82.5479 deg
Mean motion:    1.00273184 rev/day
Decay rate:    1.4299E-006 rev/day^2
Epoch rev:            2451
Checksum:              257

Satellite: JAS 2
Catalog number: 24278
Epoch time:      102362.99437334
Element set:     549 
Inclination:       98.5300 deg
RA of node:       156.2377 deg
Eccentricity:    0.0351114
Arg of perigee:   350.3330 deg
Mean anomaly:       9.1170 deg
Mean motion:   13.52867826 rev/day
Decay rate:    3.9999E-008 rev/day^2
Epoch rev:           31433
Checksum:              320

Satellite: UNAMSAT
Catalog number: 24305
Epoch time:      102364.22125388
Element set:     650 
Inclination:       82.9353 deg
RA of node:       300.0161 deg
Eccentricity:    0.0030518
Arg of perigee:   346.7742 deg
Mean anomaly:      13.2608 deg
Mean motion:   13.73444651 rev/day
Decay rate:    2.0499E-006 rev/day^2
Epoch rev:           31657
Checksum:              280

Satellite: INMARSAT 3-F2
Catalog number: 24307
Epoch time:      102362.91994214
Element set:     63 
Inclination:        0.0451 deg
RA of node:         5.0253 deg
Eccentricity:    0.0004363
Arg of perigee:   268.0175 deg
Mean anomaly:     139.8497 deg
Mean motion:    1.00271562 rev/day
Decay rate:   -1.1299E-006 rev/day^2
Epoch rev:            2310
Checksum:              262

Satellite: HOT BIRD 2
Catalog number: 24665
Epoch time:      102350.97625740
Element set:     336 
Inclination:        0.0508 deg
RA of node:       231.3890 deg
Eccentricity:    0.0009627
Arg of perigee:    13.0081 deg
Mean anomaly:     205.5338 deg
Mean motion:    1.00276963 rev/day
Decay rate:    1.1199E-006 rev/day^2
Epoch rev:            2262
Checksum:              271

Satellite: INMARSAT 3-F3
Catalog number: 24674
Epoch time:      102361.64629984
Element set:     957 
Inclination:        0.0517 deg
RA of node:       355.2483 deg
Eccentricity:    0.0004376
Arg of perigee:   280.6320 deg
Mean anomaly:     230.8074 deg
Mean motion:    1.00272029 rev/day
Decay rate:    5.1000E-007 rev/day^2
Epoch rev:            2205
Checksum:              274

Satellite: GOES 10
Catalog number: 24786
Epoch time:      102361.36365196
Element set:     477 
Inclination:        0.0182 deg
RA of node:       239.7888 deg
Eccentricity:    0.0002881
Arg of perigee:    67.1991 deg
Mean anomaly:     144.0925 deg
Mean motion:    1.00272977 rev/day
Decay rate:    1.0100E-006 rev/day^2
Epoch rev:            2080
Checksum:              292

Satellite: INMARSAT 3-F4
Catalog number: 24819
Epoch time:      102363.11241074
Element set:     859 
Inclination:        0.0346 deg
RA of node:       305.4210 deg
Eccentricity:    0.0003592
Arg of perigee:   342.8869 deg
Mean anomaly:     155.5831 deg
Mean motion:    1.00271769 rev/day
Decay rate:   -2.7599E-006 rev/day^2
Epoch rev:            2049
Checksum:              299

Satellite: FENGYUN 2A
Catalog number: 24834
Epoch time:      102363.87585822
Element set:     941 
Inclination:        2.4466 deg
RA of node:        88.8933 deg
Eccentricity:    0.0001931
Arg of perigee:   238.4439 deg
Mean anomaly:     172.5930 deg
Mean motion:    1.00268131 rev/day
Decay rate:   -1.9100E-006 rev/day^2
Epoch rev:            2033
Checksum:              288

Satellite: HOT BIRD 3
Catalog number: 24931
Epoch time:      102351.86791068
Element set:     417 
Inclination:        0.0013 deg
RA of node:       322.2522 deg
Eccentricity:    0.0005452
Arg of perigee:   322.5658 deg
Mean anomaly:     126.9331 deg
Mean motion:    1.00273655 rev/day
Decay rate:    1.1199E-006 rev/day^2
Epoch rev:            1945
Checksum:              268

Satellite: METEOSAT 7
Catalog number: 24932
Epoch time:      102362.16187814
Element set:     219 
Inclination:        0.1063 deg
RA of node:        16.2630 deg
Eccentricity:    0.0001318
Arg of perigee:   231.8054 deg
Mean anomaly:     266.5978 deg
Mean motion:    1.00270238 rev/day
Decay rate:    5.0000E-008 rev/day^2
Epoch rev:            1949
Checksum:              263

Satellite: ASTRA 1G
Catalog number: 25071
Epoch time:      102354.00000000
Element set:     385 
Inclination:        0.0122 deg
RA of node:       319.8851 deg
Eccentricity:    0.0002995
Arg of perigee:    65.1991 deg
Mean anomaly:      82.5033 deg
Mean motion:    1.00273184 rev/day
Decay rate:    1.4299E-006 rev/day^2
Epoch rev:            1853
Checksum:              246

Satellite: INMARSAT 3-F5
Catalog number: 25153
Epoch time:      102362.90436344
Element set:     825 
Inclination:        0.4478 deg
RA of node:       357.5592 deg
Eccentricity:    0.0004446
Arg of perigee:   282.1806 deg
Mean anomaly:     168.1295 deg
Mean motion:    1.00277883 rev/day
Decay rate:    1.5099E-006 rev/day^2
Epoch rev:            1798
Checksum:              322

Satellite: HOT BIRD 4
Catalog number: 25237
Epoch time:      102353.82621742
Element set:     322 
Inclination:        0.0438 deg
RA of node:       307.7455 deg
Eccentricity:    0.0004897
Arg of perigee:   256.9385 deg
Mean anomaly:     194.0865 deg
Mean motion:    1.00274102 rev/day
Decay rate:    1.1099E-006 rev/day^2
Epoch rev:            1793
Checksum:              292

Satellite: NOAA 15
Catalog number: 25338
Epoch time:      102363.87549842
Element set:     951 
Inclination:       98.5517 deg
RA of node:        22.3970 deg
Eccentricity:    0.0011375
Arg of perigee:   103.2979 deg
Mean anomaly:     256.9470 deg
Mean motion:   14.24220773 rev/day
Decay rate:    3.8899E-006 rev/day^2
Epoch rev:           24058
Checksum:              344

Satellite: RESURS O1-N4
Catalog number: 25394
Epoch time:      102363.90020493
Element set:     411 
Inclination:       98.6378 deg
RA of node:        77.7440 deg
Eccentricity:    0.0000656
Arg of perigee:   242.2552 deg
Mean anomaly:     117.8558 deg
Mean motion:   14.23859360 rev/day
Decay rate:    5.4900E-006 rev/day^2
Epoch rev:           23232
Checksum:              307

Satellite: TMSAT
Catalog number: 25396
Epoch time:      102362.87342085
Element set:     808 
Inclination:       98.6341 deg
RA of node:        75.9693 deg
Eccentricity:    0.0001460
Arg of perigee:   281.8699 deg
Mean anomaly:      78.2319 deg
Mean motion:   14.23491757 rev/day
Decay rate:   -4.3000E-007 rev/day^2
Epoch rev:           23217
Checksum:              327

Satellite: TECHSAT 1B
Catalog number: 25397
Epoch time:      102359.92192475
Element set:     94 
Inclination:       98.6302 deg
RA of node:        72.0274 deg
Eccentricity:    0.0000670
Arg of perigee:   353.2761 deg
Mean anomaly:       6.8406 deg
Mean motion:   14.22945710 rev/day
Decay rate:    2.4099E-006 rev/day^2
Epoch rev:           23172
Checksum:              302

Satellite: ASTRA 2A
Catalog number: 25462
Epoch time:      102354.00000000
Element set:     526 
Inclination:        0.0385 deg
RA of node:       308.7109 deg
Eccentricity:    0.0004824
Arg of perigee:   280.8620 deg
Mean anomaly:     247.0673 deg
Mean motion:    1.00272094 rev/day
Decay rate:    1.7300E-006 rev/day^2
Epoch rev:            1583
Checksum:              233

Satellite: EUTELSAT W2
Catalog number: 25491
Epoch time:      102359.83938433
Element set:     552 
Inclination:        0.0126 deg
RA of node:       249.7749 deg
Eccentricity:    0.0003903
Arg of perigee:    24.4382 deg
Mean anomaly:     138.1182 deg
Mean motion:    1.00272597 rev/day
Decay rate:    1.1500E-006 rev/day^2
Epoch rev:            1550
Checksum:              381

Satellite: HOT BIRD 5
Catalog number: 25495
Epoch time:      102363.91271007
Element set:     486 
Inclination:        0.0427 deg
RA of node:       155.6456 deg
Eccentricity:    0.0003909
Arg of perigee:   128.1244 deg
Mean anomaly:     176.0723 deg
Mean motion:    1.00268942 rev/day
Decay rate:    1.6400E-006 rev/day^2
Epoch rev:            1551
Checksum:              273

Satellite: SEDSAT 1
Catalog number: 25509
Epoch time:      102364.50474284
Element set:     745 
Inclination:       31.4285 deg
RA of node:        75.8552 deg
Eccentricity:    0.0359265
Arg of perigee:   225.7591 deg
Mean anomaly:     131.3005 deg
Mean motion:   14.27332458 rev/day
Decay rate:    2.0560E-005 rev/day^2
Epoch rev:           21815
Checksum:              297

Satellite: PAN SAT
Catalog number: 25520
Epoch time:      102363.66126182
Element set:     622 
Inclination:       28.4613 deg
RA of node:       202.8737 deg
Eccentricity:    0.0006053
Arg of perigee:   159.6438 deg
Mean anomaly:     200.4334 deg
Mean motion:   15.13610350 rev/day
Decay rate:    4.1849E-005 rev/day^2
Epoch rev:           22986
Checksum:              388

Satellite: ISS (ZARYA)
Catalog number: 25544
Epoch time:      102364.53034071
Element set:     527 
Inclination:       51.6351 deg
RA of node:       147.4029 deg
Eccentricity:    0.0004273
Arg of perigee:   336.3539 deg
Mean anomaly:     108.0297 deg
Mean motion:   15.58299134 rev/day
Decay rate:    1.8254E-004 rev/day^2
Epoch rev:           23473
Checksum:              295

